Location: White Rock
(35.8256°N, 106.1876°W)
Time: 09:20:26
(UTC-06:00)

ISS - Visible Passes

Search period start: 23 October 2021 00:00
Search period end: 02 November 2021 00:00
Orbit: 417 x 423 km, 51.6° (Epoch: 23 October)

Date Brightness Start Highest point End Pass type
(mag) Time Alt. Az. Time Alt. Az. Time Alt. Az.
23 Oct -3.8 05:59:23 44° WSW 06:00:14 66° NW 06:03:36 10° NE visible
24 Oct -1.7 05:14:42 26° ENE 05:14:42 26° ENE 05:16:22 10° NE visible
24 Oct -1.8 06:47:59 10° WNW 06:50:08 16° NNW 06:52:18 10° NNE visible
25 Oct -2.3 06:02:51 23° NNW 06:02:51 23° NNW 06:05:29 10° NNE visible
26 Oct -1.0 05:17:51 14° NNE 05:17:51 14° NNE 05:18:30 10° NNE visible
27 Oct -1.3 06:05:45 11° NNW 06:05:45 11° NNW 06:06:35 10° N visible
